Temperature
22 21 21 21 21 21 20 20 20 19 19 19 19 19 18 18 18 18 18 18 18 18 18 18 18 18 18 18 18 18 18 18 18 18 18 18 18 17 17 17 17 17 17
21 21 21 21 21 21 20 20 20 19 19 19 19 18 18 18 18 18 18 18 18 18 18 18 18 18 18 18 18 18 18 17 17 17 17 17 17 17 17 17 17 17 17
21 21 21 21 21 21 20 20 20 19 19 19 19 18 18 18 18 18 18 18 18 18 18 18 18 18 17 18 18 18 17 17 17 17 17 17 17 17 17 17 17 17 17
21 21 21 21 21 21 20 20 20 19 19 19 19 18 18 18 18 18 18 18 18 18 18 18 18 18 17 17 17 17 17 17 17 17 17 17 17 17 16 16 17 17 17
21 21 21 21 21 20 20 20 20 19 19 19 19 18 18 18 18 18 18 18 18 18 18 18 18 17 17 17 17 17 17 17 17 17 17 16 16 16 16 16 16 16 16
21 21 21 21 20 20 20 20 20 19 19 19 19 18 18 18 18 18 18 18 18 17 17 17 17 17 17 17 17 17 17 17 17 17 16 16 16 16 16 16 16 16 16
21 21 21 21 20 20 20 20 20 20 19 19 18 18 18 18 18 18 18 18 17 17 17 17 17 17 17 17 17 17 16 16 16 16 16 16 16 16 16 16 16 15 16
21 21 21 21 21 20 20 20 20 19 19 19 18 18 18 18 18 18 17 17 17 17 17 17 17 17 17 16 17 16 16 16 16 16 16 16 16 15 15 15 15 15 15
21 21 21 21 21 20 20 20 19 19 19 19 18 18 18 18 18 17 17 17 17 17 17 17 17 16 16 16 16 16 16 16 16 15 15 15 15 15 15 15 15 15 15
20 21 21 21 21 20 20 19 19 19 19 18 18 18 18 18 17 17 17 17 17 17 16 16 16 16 16 16 16 16 16 16 15 15 15 15 15 15 15 15 15 15 15
20 21 21 21 21 20 19 19 19 19 18 18 18 18 17 17 17 17 17 17 17 16 16 16 16 16 16 16 16 15 15 15 15 15 15 15 15 15 15 15 15 14 14
21 21 21 21 20 20 19 19 19 18 18 18 18 18 17 17 17 17 16 16 16 16 16 16 15 15 15 15 15 15 15 15 15 15 15 15 15 14 14 14 14 14 14
20 20 20 21 20 20 19 19 19 18 18 18 18 17 17 17 17 16 16 16 16 16 15 15 15 15 15 15 15 15 14 14 15 15 15 14 14 14 14 14 14 13 13
20 20 20 20 20 20 19 19 19 18 18 18 17 17 17 17 16 16 16 16 16 15 15 15 15 15 15 15 14 14 14 14 14 14 14 14 14 14 14 14 13 13 13
20 20 20 20 20 19 19 19 19 18 18 18 17 17 16 16 16 16 16 15 15 15 15 15 15 15 14 14 14 14 14 14 14 14 14 14 14 14 13 13 13 13 13
20 20 20 20 20 19 19 19 18 18 18 17 17 17 16 16 16 16 15 15 15 15 15 15 15 14 14 14 14 14 14 14 14 14 13 13 13 13 13 13 13 13 13
20 20 20 20 20 19 19 19 18 18 18 17 17 16 16 16 16 15 15 15 15 15 15 14 14 14 14 14 14 13 13 13 13 13 13 13 13 13 13 13 13 13 12
21 21 20 20 19 19 19 18 18 18 17 17 17 16 16 16 15 15 15 15 15 14 14 14 14 14 13 13 13 13 13 13 13 13 13 13 13 13 12 12 12 13 12
21 21 20 20 19 19 19 18 18 17 17 17 16 16 15 15 15 15 15 14 14 14 14 14 14 13 13 13 13 13 13 13 13 12 12 12 12 12 12 12 12 12 12
21 20 20 19 19 19 18 18 17 17 17 16 16 16 15 15 15 15 14 14 14 14 13 13 13 13 13 12 12 12 12 12 12 12 12 12 12 11 11 11 11 12 12
20 20 19 19 18 18 18 18 17 17 16 16 16 15 15 15 14 14 14 14 14 13 13 13 13 12 12 12 12 12 12 12 12 12 12 11 11 11 11 11 11 11 11
20 19 19 18 18 17 17 17 17 16 16 15 15 15 15 14 14 14 14 13 13 13 13 13 12 12 12 12 11 11 11 11 11 11 11 11 11 11 11 11 11 11 11
19 19 19 18 17 17 17 17 17 16 16 15 15 14 14 14 14 13 13 13 13 13 12 12 12 12 11 11 11 11 11 11 11 11 10 10 10 10 10 10 10 10 10
19 19 18 18 17 17 17 17 16 16 15 15 14 14 14 14 13 13 13 13 12 12 12 12 12 11 11 11 11 11 11 11 10 10 10 10 10 10 10 10 10 10 10
19 18 18 17 17 16 16 16 16 15 15 15 14 14 14 13 13 13 12 12 12 12 12 11 11 11 11 11 10 10 10 10 10 10 10 10 10 10 10 9 9 9 9
18 18 17 17 17 16 16 16 15 15 15 14 14 14 13 13 13 13 12 12 12 11 11 11 11 10 10 10 10 10 10 10 10 10 10 9 9 9 9 9 9 9 9
Wind_Speed
4 4 4 4 4 3 3 3 3 1 2 2 1 1 1 2 2 2 2 3 2 2 2 1 1 2 1 1 1 2 2 2 1 2 2 2 2 2 1 1 1 1 0
4 4 5 4 4 4 4 3 3 2 1 1 1 1 1 1 1 2 3 3 2 2 1 1 1 1 1 2 2 2 1 1 2 1 1 2 3 3 3 2 1 1 1
7 6 6 5 4 4 4 4 3 3 2 2 3 3 2 2 2 2 2 3 3 2 2 1 1 1 1 1 1 1 2 1 2 2 2 1 1 1 2 2 2 2 1
7 7 7 6 6 5 4 3 3 3 2 3 3 3 2 1 0 0 1 2 3 2 2 2 1 1 1 1 0 1 1 2 1 1 1 0 1 1 1 2 2 2 2
8 8 8 7 6 5 5 4 3 3 2 2 3 3 2 1 0 1 2 2 3 3 3 2 2 1 1 1 1 1 2 1 1 1 0 1 1 1 1 1 2 2 2
6 6 6 6 5 4 4 5 4 3 2 3 2 3 3 2 1 1 1 2 2 2 3 2 2 1 1 0 0 1 1 1 1 1 1 1 1 1 1 2 1 2 2
6 6 6 7 6 5 5 4 5 3 3 3 2 3 3 2 2 1 0 1 1 2 3 2 2 1 1 1 1 2 1 1 1 1 1 1 1 1 2 2 1 1 2
5 6 7 7 7 6 6 5 5 4 4 3 2 2 2 1 1 0 0 1 1 1 2 2 2 2 2 2 2 1 1 1 1 1 1 1 0 1 1 2 2 0 1
5 5 5 6 7 7 6 6 5 4 4 3 2 2 1 1 0 1 0 0 1 1 1 2 2 2 2 2 1 1 0 1 1 0 0 0 0 1 1 1 2 2 1
4 5 5 5 6 5 5 5 5 4 3 3 3 2 1 1 0 1 1 1 1 1 1 2 2 2 2 1 1 1 0 1 0 0 1 0 0 0 1 1 1 2 2
6 5 5 4 5 5 5 5 5 4 4 4 3 2 2 1 1 0 1 1 1 1 1 1 1 2 2 1 1 1 0 0 1 1 0 0 0 0 0 0 1 1 2
6 5 4 4 5 5 5 5 5 5 4 4 4 3 2 2 1 1 1 1 1 1 1 1 1 1 2 1 1 1 1 1 1 1 1 1 0 0 0 0 0 0 1
5 5 5 5 5 5 4 4 4 4 4 5 4 3 2 2 1 0 1 1 1 1 1 1 1 1 1 1 1 1 2 2 2 2 1 1 0 0 0 0 0 1 0
6 6 5 4 4 4 4 4 4 4 4 4 4 3 2 1 1 1 1 1 1 1 1 2 1 2 1 2 2 1 2 2 2 2 1 1 1 1 1 1 1 1 0
6 7 6 5 5 5 5 4 4 4 4 4 4 3 2 2 2 2 1 2 2 2 2 2 3 3 2 2 2 1 2 2 2 2 2 2 1 1 1 1 1 1 1
8 8 7 6 6 6 6 5 4 4 5 5 4 3 3 2 2 1 2 2 2 2 3 3 3 3 3 5 4 2 1 1 1 2 3 2 2 2 1 1 2 2 2
9 9 8 7 7 6 7 7 5 5 5 4 3 3 3 2 1 1 2 2 2 2 3 3 3 3 4 6 6 5 2 2 2 2 2 3 3 3 2 2 1 1 2
8 8 7 7 6 6 6 6 6 6 5 4 3 3 3 2 2 2 2 1 2 2 2 3 3 3 5 7 6 5 3 3 3 3 2 2 3 4 3 2 2 2 2
7 7 7 7 6 6 7 7 6 6 5 4 3 3 3 3 2 2 1 1 1 2 2 2 3 3 5 7 6 5 3 3 4 4 3 3 3 5 5 2 2 3 3
6 7 7 7 7 6 7 8 7 6 5 4 4 3 3 3 3 2 1 1 1 1 2 3 3 3 3 6 6 5 2 3 4 4 4 5 5 6 5 2 2 3 4
6 7 8 7 6 7 8 8 6 5 4 4 4 3 3 3 3 2 2 2 2 2 3 3 3 3 4 5 6 5 3 2 2 3 4 4 7 7 6 3 2 3 4
7 8 8 6 5 7 8 7 5 4 4 5 4 3 2 2 3 3 2 2 2 2 2 2 3 3 3 4 5 6 4 3 1 2 3 4 7 7 6 4 4 4 3
7 7 8 7 5 5 7 8 5 5 5 5 4 3 3 2 2 3 2 2 2 1 1 1 2 3 3 4 6 6 5 4 2 2 4 5 7 6 5 6 7 5 3
6 6 8 7 5 4 5 6 6 6 6 5 4 3 3 2 2 2 2 2 1 1 0 1 1 2 3 3 3 3 3 3 3 3 4 5 5 4 5 5 5 4 3
4 6 8 7 6 5 5 5 6 7 6 5 4 3 3 2 2 1 1 1 1 2 2 1 1 1 3 4 3 2 2 2 2 2 3 4 4 5 5 5 5 4 4
4 5 5 6 5 5 5 5 5 7 7 5 3 3 2 2 2 2 1 1 0 1 1 1 1 1 3 4 4 3 3 3 3 2 2 3 3 4 4 4 5 4 3
Wind_Direction
208 162 147 144 132 117 117 128 118 100 97 98 95 78 51 34 28 25 29 38 48 68 85 71 48 57 67 61 60 86 74 61 65 71 42 26 28 26 9 4 23 11 11
188 166 157 153 149 151 150 147 143 138 127 138 127 110 95 50 20 358 15 21 30 41 86 99 79 63 70 55 59 81 84 51 53 85 72 8 4 15 14 18 43 21 38
193 183 171 166 161 163 167 164 159 149 135 118 97 84 62 40 27 13 6 11 21 28 42 63 79 81 106 95 63 92 114 85 39 52 115 128 250 318 354 15 21 21 36
190 186 179 176 180 184 173 161 155 135 128 126 124 123 125 129 235 353 345 3 22 26 43 55 69 71 76 82 34 91 109 122 107 36 38 107 166 183 325 347 1 11 22
192 192 191 186 185 181 171 163 147 132 127 120 133 135 134 160 49 38 29 14 12 19 27 37 50 57 56 33 43 80 98 118 140 137 112 88 63 117 182 289 332 355 356
191 189 188 180 182 175 168 160 149 151 145 141 147 151 152 145 86 49 31 357 354 3 12 26 33 38 41 20 36 93 113 119 125 120 122 150 166 185 175 220 286 321 328
183 180 178 181 184 179 177 167 155 156 156 157 164 168 162 153 159 175 174 346 348 344 341 359 7 8 360 22 73 83 78 109 121 141 149 168 192 174 162 172 229 299 313
186 186 190 188 185 182 177 166 160 164 161 165 171 148 136 144 171 204 207 240 263 294 325 355 3 10 24 40 68 72 59 87 110 102 139 163 156 140 165 170 166 244 340
188 187 189 190 184 182 183 176 168 174 168 162 147 122 123 133 144 354 4 313 299 321 19 20 12 14 27 33 62 75 62 83 85 231 157 126 80 151 190 185 180 172 233
187 191 188 187 183 180 175 166 166 172 161 146 157 150 131 114 1 22 345 338 340 355 21 15 1 3 13 30 69 68 43 92 254 204 105 57 282 107 145 177 182 182 193
192 196 191 181 166 157 156 156 152 148 150 154 151 139 114 112 126 305 294 301 352 8 13 345 353 1 9 18 51 12 18 17 323 337 86 283 252 134 43 102 142 161 168
181 173 170 160 150 151 149 154 154 152 156 151 142 144 135 118 107 54 330 356 13 358 346 344 360 353 7 11 8 324 334 319 304 299 293 292 318 39 355 99 200 199 202
164 159 154 155 156 153 147 149 151 155 149 141 139 131 121 121 121 89 3 31 35 13 3 19 9 347 345 349 326 303 307 297 282 275 254 261 177 262 252 212 228 256 201
160 157 155 158 155 147 147 150 147 149 146 139 138 139 136 144 149 100 76 52 64 55 26 11 350 326 326 332 323 319 310 305 300 300 286 257 204 221 204 203 223 220 181
164 167 168 168 159 153 152 154 151 138 133 131 130 137 125 110 94 76 59 52 56 50 34 25 11 358 357 356 348 325 326 326 338 344 330 308 267 199 194 205 209 184 197
185 177 172 167 167 166 163 157 147 136 130 132 139 130 111 99 93 83 69 63 52 46 46 32 24 21 18 14 18 13 335 345 355 340 332 329 325 312 294 243 212 189 195
188 181 179 177 176 172 164 159 155 140 132 135 134 126 125 124 114 100 77 64 56 54 49 32 31 23 11 19 22 29 36 21 1 345 337 338 344 349 330 315 304 273 233
185 182 175 170 169 161 156 151 145 142 140 141 144 144 143 137 105 86 74 55 59 59 53 36 26 21 12 18 20 29 37 28 10 360 350 342 339 348 350 329 321 306 293
181 171 163 157 153 152 151 143 141 143 144 152 155 153 150 139 121 107 85 72 67 51 45 44 34 27 6 12 17 28 28 26 11 3 3 360 348 349 358 353 325 317 312
150 144 139 133 138 141 140 141 146 146 155 162 154 143 143 141 136 135 116 87 96 78 61 47 34 25 7 9 25 34 39 23 3 358 358 2 355 345 349 333 315 310 309
135 133 134 138 144 142 138 139 143 159 168 149 133 127 134 141 131 119 103 98 90 72 57 39 15 9 2 4 19 33 40 16 355 353 351 347 354 353 346 334 307 294 303
131 135 136 137 139 143 141 142 156 163 141 133 129 128 126 127 122 117 97 83 85 75 52 26 1 354 354 1 3 19 31 27 12 332 330 333 344 347 347 352 348 339 341
141 139 138 133 131 144 148 153 166 146 136 133 135 132 119 114 118 126 117 91 87 89 54 22 341 333 343 349 356 0 4 9 8 330 335 340 346 350 357 5 5 5 4
139 139 137 140 143 149 153 155 149 141 139 143 145 138 132 117 98 117 134 135 134 122 72 333 316 319 332 340 344 346 350 357 357 347 347 355 4 11 5 4 9 10 3
140 145 149 154 157 152 149 146 144 140 138 139 137 134 138 138 124 121 158 171 188 182 181 229 253 296 311 306 308 330 341 337 334 354 13 19 16 12 8 4 1 1 2
139 141 147 152 153 149 147 150 147 141 138 138 145 153 152 148 147 145 92 39 77 7 185 193 200 255 272 306 326 332 334 343 10 48 24 7 1 357 354 352 350 350 349
Height
1497 1498 1499 1499 1500 1500 1501 1501 1501 1501 1502 1502 1502 1502 1503 1503 1503 1503 1503 1503 1503 1503 1503 1503 1503 1502 1502 1501 1501 1501 1500 1500 1501 1501 1501 1501 1501 1501 1501 1501 1501 1501 1501
1495 1497 1498 1499 1500 1500 1500 1501 1501 1501 1502 1503 1503 1504 1504 1504 1504 1504 1504 1504 1504 1504 1503 1503 1502 1502 1502 1501 1501 1501 1501 1501 1501 1501 1501 1501 1502 1501 1501 1501 1500 1500 1500
1493 1495 1496 1498 1499 1500 1500 1501 1501 1502 1502 1503 1504 1504 1504 1504 1504 1504 1504 1504 1504 1503 1503 1503 1503 1502 1502 1501 1501 1501 1501 1501 1501 1501 1502 1501 1501 1501 1501 1500 1500 1500 1500
1492 1493 1495 1497 1498 1499 1500 1501 1502 1502 1503 1503 1503 1504 1504 1504 1504 1504 1504 1504 1504 1503 1503 1503 1502 1502 1502 1501 1501 1501 1501 1500 1500 1500 1501 1501 1501 1501 1500 1500 1500 1499 1499
1490 1491 1493 1495 1497 1498 1500 1501 1501 1502 1502 1503 1503 1504 1504 1504 1504 1504 1504 1504 1503 1503 1503 1502 1502 1502 1501 1501 1501 1501 1500 1500 1500 1500 1500 1500 1500 1500 1500 1499 1499 1499 1498
1489 1490 1492 1494 1496 1497 1499 1500 1500 1501 1502 1502 1503 1503 1503 1504 1504 1504 1504 1503 1503 1503 1502 1502 1502 1501 1501 1500 1500 1500 1499 1499 1499 1499 1499 1498 1498 1498 1498 1498 1497 1497 1498
1487 1489 1490 1492 1494 1496 1497 1498 1499 1500 1501 1502 1503 1503 1503 1504 1503 1503 1503 1503 1503 1502 1502 1501 1501 1500 1500 1499 1499 1498 1498 1498 1498 1497 1497 1497 1497 1497 1497 1497 1496 1496 1496
1485 1487 1489 1490 1492 1494 1496 1497 1498 1499 1500 1501 1502 1503 1503 1503 1503 1503 1503 1502 1502 1502 1501 1501 1500 1500 1499 1499 1498 1497 1497 1497 1497 1496 1496 1496 1495 1496 1496 1496 1495 1494 1495
1483 1485 1487 1489 1490 1492 1494 1496 1497 1498 1499 1501 1502 1502 1503 1503 1503 1503 1502 1502 1501 1501 1501 1500 1500 1499 1499 1498 1497 1496 1496 1495 1495 1495 1495 1494 1494 1494 1494 1494 1494 1494 1493
1481 1483 1485 1487 1489 1491 1493 1495 1496 1498 1499 1500 1501 1502 1502 1503 1503 1502 1502 1501 1501 1500 1500 1499 1499 1498 1497 1497 1496 1495 1495 1494 1494 1493 1493 1492 1492 1492 1492 1492 1492 1492 1492
1480 1481 1483 1485 1487 1489 1492 1494 1495 1497 1498 1499 1500 1501 1501 1502 1502 1501 1501 1501 1500 1499 1499 1498 1498 1497 1496 1495 1495 1494 1494 1493 1492 1491 1491 1490 1490 1490 1490 1489 1489 1489 1489
1478 1480 1482 1484 1486 1488 1490 1492 1494 1496 1497 1498 1499 1500 1500 1501 1500 1500 1500 1500 1499 1499 1498 1497 1497 1496 1495 1494 1494 1493 1492 1491 1490 1490 1489 1489 1488 1488 1487 1487 1487 1487 1487
1477 1479 1481 1482 1485 1487 1489 1491 1493 1495 1496 1497 1498 1499 1499 1500 1500 1499 1499 1498 1498 1497 1497 1496 1496 1495 1494 1493 1492 1492 1491 1490 1489 1488 1487 1486 1486 1485 1485 1485 1485 1485 1485
1476 1478 1480 1482 1484 1486 1489 1491 1492 1494 1495 1496 1497 1497 1498 1498 1499 1498 1498 1497 1497 1496 1496 1495 1495 1494 1493 1492 1491 1490 1489 1488 1487 1486 1485 1485 1484 1484 1484 1483 1483 1483 1483
1476 1477 1479 1482 1484 1486 1489 1490 1492 1493 1495 1496 1496 1497 1497 1498 1498 1498 1497 1496 1496 1495 1495 1494 1493 1492 1491 1490 1489 1488 1487 1486 1485 1484 1484 1483 1483 1482 1482 1481 1481 1481 1481
1474 1476 1478 1481 1483 1485 1488 1490 1491 1493 1494 1495 1495 1496 1496 1497 1497 1497 1496 1495 1495 1494 1493 1493 1492 1491 1490 1489 1488 1487 1485 1484 1483 1482 1482 1481 1481 1480 1480 1479 1479 1479 1479
1472 1474 1477 1479 1482 1484 1486 1488 1491 1492 1493 1494 1495 1495 1496 1496 1496 1496 1495 1495 1494 1493 1492 1492 1491 1490 1489 1488 1487 1486 1484 1483 1482 1481 1480 1479 1479 1478 1478 1477 1477 1477 1477
1471 1473 1476 1478 1481 1483 1485 1488 1489 1491 1492 1493 1494 1495 1495 1495 1495 1495 1495 1494 1493 1492 1491 1491 1490 1488 1488 1487 1486 1484 1483 1482 1481 1480 1478 1478 1477 1476 1476 1475 1475 1474 1474
1469 1472 1475 1477 1480 1482 1484 1486 1488 1489 1490 1492 1493 1494 1494 1494 1494 1494 1494 1493 1493 1492 1491 1490 1489 1488 1487 1486 1485 1484 1482 1481 1480 1479 1477 1476 1475 1474 1473 1473 1472 1471 1471
1469 1471 1474 1476 1478 1480 1483 1484 1486 1488 1489 1491 1492 1493 1493 1493 1493 1493 1493 1492 1492 1491 1490 1489 1488 1487 1486 1485 1484 1483 1481 1480 1479 1478 1476 1475 1474 1473 1471 1470 1469 1468 1467
1468 1470 1472 1475 1477 1479 1481 1483 1485 1487 1488 1490 1491 1492 1492 1492 1492 1492 1492 1491 1491 1490 1489 1488 1487 1486 1485 1484 1483 1481 1480 1479 1478 1477 1475 1474 1473 1471 1470 1468 1467 1465 1465
1468 1470 1471 1474 1476 1478 1480 1482 1484 1486 1487 1489 1490 1491 1491 1492 1492 1492 1491 1491 1490 1489 1488 1487 1486 1485 1484 1483 1482 1481 1480 1478 1477 1476 1474 1473 1472 1470 1468 1467 1465 1464 1463
1467 1469 1471 1473 1476 1478 1480 1481 1483 1484 1486 1488 1489 1490 1490 1491 1491 1491 1490 1490 1489 1488 1487 1487 1486 1485 1484 1483 1482 1480 1479 1478 1476 1475 1473 1472 1470 1468 1467 1465 1464 1462 1460
1467 1469 1470 1472 1475 1477 1479 1480 1482 1483 1485 1487 1488 1489 1489 1490 1490 1490 1489 1489 1488 1487 1486 1485 1485 1484 1483 1482 1481 1479 1478 1477 1475 1474 1472 1470 1469 1467 1465 1464 1462 1460 1459
1467 1468 1470 1472 1474 1476 1478 1480 1481 1482 1484 1485 1487 1488 1488 1488 1489 1489 1488 1488 1487 1486 1486 1485 1484 1483 1482 1481 1480 1478 1477 1475 1474 1472 1471 1469 1467 1465 1464 1462 1460 1459 1457
1467 1469 1471 1472 1474 1475 1477 1479 1480 1481 1483 1484 1486 1487 1487 1487 1488 1488 1487 1487 1486 1486 1485 1484 1483 1482 1481 1480 1479 1478 1476 1475 1473 1472 1469 1467 1466 1464 1462 1461 1459 1458 1456